SCP
0 0 0 0 0 0 0 0 0 0 0 0 0 0 0 0 0 0 0 0 0 0 0 0 0 0 0 0 0 0 0 0 0 0 0 0 0 0 0 0 0 0 0
0 0 0 0 0 0 0 0 0 0 0 0 0 0 0 0 0 0 0 0 0 0 0 0 0 0 0 0 0 0 0 0 0 0 0 0 0 0 0 0 0 0 0
0 0 0 0 0 0 0 0 0 0 0 0 0 0 0 0 0 0 0 0 0 0 0 0 0 0 0 0 0 0 0 0 0 0 0 0 0 0 0 0 0 0 0
0 0 0 0 0 0 0 0 0 0 0 0 0 0 0 0 0 0 0 0 0 0 0 0 0 0 0 0 0 0 0 0 0 0 0 0 0 0 0 0 0 0 0
0 0 0 0 0 0 0 0 0 0 0 0 0 0 0 0 0 0 0 0 0 0 0 0 0 0 0 0 0 0 0 0 0 0 0 0 0 0 0 0 0 0 0
0 0 0 0 0 0 0 0 0 0 0 0 0 0 0 0 0 0 0 0 0 0 0 0 0 0 0 0 0 0 0 0 0 0 0 0 0 0 0 0 0 0 0
-0 -0 0 0 0 0 0 0 0 0 0 0 0 0 0 0 0 0 0 0 0 0 0 0 0 0 0 0 0 0 0 0 0 0 0 0 0 0 0 0 0 0 0
-0 -0 -0 0 0 0 0 0 0 0 0 0 0 0 0 0 0 0 0 0 0 0 0 0 0 0 0 0 0 0 0 0 0 0 0 0 0 0 0 0 0 0 0
-0 -0 -0 -0 0 0 0 0 0 0 0 0 0 0 0 0 0 0 0 0 0 0 0 0 0 0 0 0 0 0 0 0 0 0 0 0 0 0 0 0 0 0 0
-0 -0 -0 -0 -0 -0 0 0 0 0 0 0 0 0 0 0 0 0 0 0 0 0 0 0 0 0 0 0 0 0 0 0 0 0 0 0 0 0 0 0 0 0 0
-0 -0 -0 -0 -0 -0 0 0 0 0 0 0 0 -0 -0 0 0 0 0 0 0 0 0 0 0 0 0 0 0 0 0 0 0 0 0 0 0 0 0 0 0 0 0
-0 -0 -0 -0 -0 -0 0 0 0 0 0 0 0 -0 -0 0 0 0 0 0 0 0 0 0 0 0 0 0 0 0 0 0 0 0 0 0 0 0 0 0 0 0 0
-0 -0 -0 -0 -0 0 0 0 0 0 0 0 0 0 0 0 0 0 0 0 0 0 0 0 0 0 0 0 0 0 0 0 0 0 0 0 0 0 0 0 0 0 0
-0 -0 -0 0 0 0 0 0 0 0 0 0 0 0 0 0 0 0 0 0 0 0 0 0 0 0 0 0 0 0 0 0 0 0 0 0 0 0 0 0 0 0 0
0 0 0 0 0 0 0 0 0 0 0 0 0 0 0 0 0 0 0 0 0 0 0 0 0 0 0 0 0 0 0 0 0 0 0 0 0 0 0 0 0 0 0
0 0 0 0 0 0 0 0 0 0 0 0 0 0 0 0 0 0 0 0 0 0 0 0 0 0 0 0 0 0 0 0 0 0 0 0 0 0 0 0 0 0 0
0 0 0 0 0 0 0 0 0 0 0 0 0 0 0 0 0 0 0 0 0 0 0 0 0 0 0 0 0 0 0 0 0 0 0 0 0 0 0 0 0 0 0
0 0 0 0 0 0 0 0 0 0 0 0 0 0 0 0 0 0 0 0 0 0 0 0 0 0 0 0 0 0 0 0 0 0 0 0 0 0 0 0 0 0 0
0 0 0 0 0 0 0 0 0 0 0 0 0 0 0 0 0 0 0 0 0 0 0 0 0 0 0 0 0 0 0 0 0 0 0 0 0 0 0 0 0 0 0
0 0 0 0 0 0 0 0 0 0 0 0 0 0 0 0 0 0 0 0 0 0 0 0 0 0 0 0 0 0 0 0 0 0 0 0 0 0 0 0 0 0 0
0 0 0 0 0 0 0 0 0 0 0 0 0 0 0 0 0 0 0 0 0 0 0 0 0 0 0 0 0 0 0 0 0 0 0 0 0 0 0 0 0 0 0
0 0 0 0 0 0 0 0 0 0 0 0 0 0 0 0 0 0 0 0 0 0 0 0 0 0 0 0 0 0 0 0 0 0 0 0 0 0 0 0 0 0 0
-0 -0 0 0 0 0 0 0 0 0 0 0 0 0 0 0 0 0 0 0 0 0 0 0 0 0 0 0 0 0 0 0 0 0 0 0 0 0 0 0 0 0 0
-0 -0 0 0 0 0 0 0 0 0 0 0 0 0 0 0 0 0 0 0 0 0 0 0 0 0 0 0 0 0 0 0 0 0 0 0 0 0 0 0 0 0 0
0 0 0 0 0 0 0 0 0 0 0 0 0 0 0 0 0 0 0 0 0 0 0 0 0 0 0 0 0 0 0 0 0 0 0 0 0 0 0 0 0 0 0
0 0 0 0 0 0 0 0 0 0 0 0 0 0 0 0 0 0 0 0 0 0 0 0 0 0 0 0 0 0 0 0 0 0 0 0 0 0 0 0 0 0 0
Wind_Speed
1 1 7 9 9 10 10 10 10 11 11 11 10 10 10 10 9 9 9 8 8 8 8 8 7 7 7 7 7 7 7 7 7 6 6 6 5 5 6 6 6 4 7
3 3 8 9 10 10 10 10 10 11 11 10 10 10 10 10 9 9 8 8 7 7 7 7 6 6 6 6 6 6 6 6 6 6 6 5 5 4 5 5 6 4 7
4 4 5 9 9 9 10 10 10 10 10 10 10 9 9 9 9 8 8 7 7 6 6 6 6 6 6 6 6 6 6 5 6 6 6 4 3 3 4 5 5 6 6
5 4 5 9 9 9 9 10 10 10 10 9 9 9 8 8 8 7 7 7 6 6 6 6 6 6 5 6 6 6 5 5 5 6 4 3 3 3 3 4 5 6 6
5 4 5 8 9 9 9 9 9 9 9 9 9 8 8 7 7 7 6 6 6 6 6 6 6 5 5 5 5 6 6 5 5 5 3 3 3 2 3 3 4 5 5
4 3 4 8 8 9 9 9 9 8 8 8 8 7 7 7 7 6 6 6 6 5 5 5 5 5 5 5 5 5 5 5 5 3 3 3 2 2 2 2 3 4 5
4 3 3 7 8 8 8 8 8 7 7 7 7 6 6 6 6 6 6 6 5 5 5 5 5 5 5 5 5 5 5 5 2 2 2 2 2 2 0 1 2 3 4
4 3 2 6 7 7 7 7 6 6 6 6 6 6 5 5 5 4 5 5 5 5 5 5 5 5 5 5 5 5 4 5 3 2 2 2 3 3 1 1 1 2 3
3 3 2 2 3 4 5 5 5 5 5 5 5 5 5 5 5 5 4 4 5 5 5 5 5 5 5 5 5 5 4 4 2 1 2 2 4 3 2 1 1 1 2
2 2 1 2 2 3 3 2 3 3 4 5 6 6 6 7 7 6 5 5 5 6 6 6 6 6 6 5 5 5 4 3 1 1 1 2 4 3 2 1 1 1 2
2 0 0 0 1 1 1 2 3 5 6 7 6 8 7 4 4 4 6 6 6 6 7 7 7 7 7 6 6 5 4 1 2 1 1 3 4 3 2 1 2 2 2
3 3 2 2 1 0 1 2 2 3 4 4 3 4 3 3 3 4 7 8 8 8 8 8 8 7 6 3 4 4 2 2 1 1 2 4 3 3 2 2 2 2 2
4 3 3 3 1 0 0 1 1 2 2 3 3 3 2 3 3 3 3 4 5 6 4 5 5 3 3 2 2 2 2 2 1 2 2 4 3 2 2 2 2 2 2
3 4 3 3 2 1 0 0 1 1 1 2 2 2 2 2 3 3 2 3 3 2 3 3 2 3 3 3 2 2 2 2 1 1 2 4 2 1 1 2 2 2 3
4 3 3 3 2 2 1 0 1 1 2 2 2 2 3 2 2 2 2 2 3 2 3 3 3 3 3 3 3 2 2 2 2 2 2 4 3 2 2 2 2 2 3
4 3 2 3 3 3 2 2 2 2 2 2 2 3 3 2 2 2 2 3 3 3 2 2 2 2 2 2 3 3 3 2 2 2 2 3 4 4 3 2 1 2 3
4 3 3 3 3 3 3 3 2 2 2 2 2 3 3 3 2 2 2 3 3 3 3 2 3 2 2 2 3 3 3 3 2 2 2 2 2 4 4 3 2 2 2
4 4 4 4 4 4 3 3 3 2 2 2 2 2 3 3 3 2 2 3 3 3 3 2 2 3 3 3 2 3 3 3 3 2 2 2 2 2 3 3 2 2 1
6 5 4 5 5 4 4 4 3 3 3 2 2 2 2 3 3 2 2 2 3 3 3 3 3 2 2 3 2 2 3 3 3 3 3 3 3 2 2 2 3 3 2
5 5 5 5 5 5 4 3 3 3 2 2 2 2 2 2 3 2 2 3 3 3 3 3 3 3 2 2 2 3 3 3 3 3 3 3 3 3 2 2 2 2 3
5 5 5 5 4 4 3 2 2 1 1 1 1 2 2 2 3 3 2 3 3 3 3 3 2 3 3 2 2 3 3 3 4 3 3 3 3 3 3 2 2 2 2
5 6 5 5 5 4 3 2 2 2 1 0 1 2 2 2 3 2 3 2 3 3 4 4 3 2 3 3 2 2 3 4 4 4 3 3 3 3 3 3 2 2 2
5 6 6 5 5 4 4 3 3 3 2 2 2 2 2 2 2 2 2 2 2 2 2 3 3 3 2 3 3 2 2 1 2 3 3 3 3 3 2 2 2 2 2
4 4 5 5 4 4 4 4 3 2 1 1 1 1 2 2 2 2 2 2 2 2 2 2 2 2 2 2 2 2 1 1 1 2 3 3 3 3 3 2 2 2 2
4 4 5 5 4 4 4 4 4 2 1 0 1 2 2 3 3 2 2 2 2 2 2 3 2 2 2 1 1 1 2 2 1 1 1 3 3 2 2 2 1 2 2
4 4 5 5 4 3 4 4 4 3 2 1 1 1 2 2 2 3 2 2 2 2 2 2 2 2 2 2 1 1 1 1 1 1 0 1 2 2 2 2 2 1 1
Wind_Direction
106 124 114 105 102 100 97 96 94 94 95 94 93 92 91 90 90 89 88 86 83 81 79 76 70 66 61 60 57 54 52 50 50 49 52 60 62 64 64 61 55 40 53
135 122 114 108 104 101 99 96 93 92 92 91 90 88 87 86 84 84 85 85 81 78 76 72 67 64 57 51 48 45 42 40 40 41 44 43 52 67 64 62 60 54 52
112 106 110 112 108 104 101 98 95 92 91 89 88 86 84 83 81 78 75 74 74 74 72 64 57 54 50 45 38 34 33 30 33 40 38 22 17 59 63 61 59 57 52
116 107 110 111 107 105 103 99 96 93 91 89 87 85 82 78 76 72 68 66 64 64 63 57 48 43 37 34 27 22 22 23 28 36 29 11 358 47 61 61 55 54 52
107 102 117 114 110 107 103 99 95 92 89 87 85 82 79 75 72 69 64 59 55 52 50 47 38 32 26 23 18 13 11 14 27 34 20 10 357 12 49 58 52 52 53
107 103 122 121 115 108 102 98 96 93 88 86 82 78 74 70 66 61 55 50 46 41 35 31 23 17 13 9 6 3 2 7 24 27 14 358 344 343 41 63 56 49 50
119 109 120 124 117 111 104 100 94 91 87 83 78 73 67 62 56 48 41 36 33 29 24 17 11 5 1 357 355 352 351 353 21 16 3 344 326 315 336 87 70 53 53
126 114 111 127 122 115 108 102 98 92 84 78 71 61 53 44 38 31 26 20 19 13 9 7 1 355 355 351 346 344 344 349 5 355 338 326 310 299 260 138 97 71 62
115 109 78 65 93 109 107 104 96 87 76 65 54 42 35 27 19 13 8 4 5 1 357 357 351 347 343 343 341 341 342 353 18 335 319 316 301 290 253 213 152 97 74
102 99 92 61 49 44 34 61 74 57 44 35 28 23 24 18 9 4 0 356 357 354 354 357 355 353 350 345 342 345 352 2 356 319 305 288 295 278 246 209 167 129 98
170 166 139 117 44 38 4 4 25 21 21 22 17 19 28 15 7 360 1 7 5 4 2 2 1 2 3 358 352 0 15 10 336 316 289 282 286 264 242 203 177 155 125
210 221 209 215 216 23 346 27 18 18 21 20 17 18 18 17 12 22 14 21 21 20 15 12 10 12 13 1 359 18 20 354 344 317 296 294 285 267 243 218 200 181 156
210 222 207 205 200 181 335 13 13 14 18 18 23 24 29 35 25 26 18 13 14 20 13 5 8 8 6 1 358 2 6 6 346 327 323 319 292 265 241 223 218 192 173
199 217 214 184 176 191 195 15 36 38 29 26 20 32 54 49 36 26 21 6 10 3 0 1 356 359 5 3 4 2 8 10 348 335 322 332 318 285 266 241 219 203 183
196 206 201 174 168 162 133 66 79 73 63 52 41 38 59 66 51 33 16 13 8 4 1 355 355 359 3 3 8 11 359 3 356 350 335 346 354 338 318 288 235 212 192
194 192 177 162 158 145 129 116 105 90 79 71 53 42 57 69 61 42 26 14 4 354 349 347 349 354 352 358 7 8 0 2 357 351 351 359 11 6 350 327 282 224 206
186 173 163 156 139 134 131 127 105 93 90 73 52 42 51 56 53 46 30 11 351 344 350 -0 4 10 14 13 10 4 5 1 357 356 3 9 9 6 360 355 334 276 222
165 159 159 143 128 124 120 108 97 90 82 66 50 42 44 49 54 49 32 5 347 353 4 10 14 14 13 12 8 360 6 2 2 4 18 17 16 9 2 0 358 344 285
164 155 141 128 126 118 104 93 85 78 68 55 44 39 37 41 45 51 33 2 358 10 12 8 22 21 13 5 8 19 16 14 5 18 24 20 17 16 10 3 16 17 7
152 145 136 126 119 109 93 82 67 57 45 38 33 22 29 29 35 42 30 10 13 20 12 11 16 20 21 2 26 33 22 18 23 28 24 21 18 20 24 21 17 7 13
144 143 143 139 137 126 110 107 100 80 32 19 6 9 20 26 29 38 26 14 17 23 9 7 15 21 17 7 37 21 10 21 34 29 20 25 23 17 24 26 22 22 5
156 154 152 152 154 152 136 130 131 127 104 25 337 358 12 18 18 31 35 20 14 16 17 18 24 24 17 22 55 58 16 2 4 15 17 27 22 15 19 27 30 32 26
157 162 161 158 158 152 133 111 87 61 40 19 0 346 342 355 12 27 27 26 21 28 15 11 21 42 29 14 38 87 91 11 329 345 10 19 13 13 6 8 29 27 31
160 147 143 149 150 147 141 135 134 133 144 250 285 311 330 351 3 13 12 24 24 22 17 7 35 37 57 27 13 36 95 162 115 349 342 353 3 10 4 7 16 15 25
137 137 134 135 135 136 135 135 127 125 150 277 353 346 345 347 356 2 9 18 15 10 9 18 28 40 53 59 28 19 43 50 71 117 338 335 348 346 354 355 2 4 15
116 120 124 127 123 122 122 123 132 138 141 109 30 351 338 337 341 353 5 11 4 2 3 12 26 43 46 58 47 44 58 58 40 98 117 330 332 320 339 350 360 1 3